Station 51205 - Pauwela, Maui, HI (187) Image indicating link to RSS feed of recent meteorological observations for station 51205


Conditions at 51205 as of
(7:26 am HAST)
1726 GMT on 06/12/2024:
     

Click on the graph icon in the table below to see a time series plot of the last five days of that observation.

5-day plot - Wave Height Wave Height (WVHT): 3.9 ft
5-day plot - Dominant Wave Period Dominant Wave Period (DPD): 8 sec
5-day plot - Average Wave Period Average Period (APD): 5.2 sec
5-day plot - Mean Wave Direction Mean Wave Direction (MWD):ENE ( 61 deg true )
5-day plot - Water Temperature Water Temperature (WTMP): 77.4 °F
Previous observations
TIME
(HAST)
5-day plot - Wind Direction
WDIR
 
5-day plot - Wind Speed
WSPD
kts
5-day plot - Wind Gust
GST
kts
5-day plot - Wave Height
WVHT
ft
5-day plot - Dominant Wave Period
DPD
sec
5-day plot - Average Wave Period
APD
sec
5-day plot - Mean Wave Direction
MWD
 
5-day plot - Atmospheric Pressure
PRES
in
5-day plot - Pressure Tendency
PTDY
in
5-day plot - Air Temperature
ATMP
°F
5-day plot - Water Temperature
WTMP
°F
5-day plot - Dew Point
DEWP
°F
5-day plot - Salinity
SAL
psu
5-day plot - Visibility
VIS
nmi
5-day plot - Tide (above MLLW)
TIDE
ft
2024-06-12 06:56 am--- 4.3 85.1 NE--- 77.4----
2024-06-12 06:26 am--- 3.9 85.3 NE--- 77.4----
2024-06-12 05:56 am--- 3.9 75.2ENE--- 77.4----
2024-06-12 05:26 am--- 3.9 75.3ENE--- 77.4----
2024-06-12 04:56 am--- 4.3 75.1ENE--- 77.4----
2024-06-12 04:26 am--- 3.9 85.1ENE--- 77.4----
2024-06-12 03:56 am--- 4.3 75.3ENE--- 77.4----
2024-06-12 03:26 am--- 3.9 95.3NNW--- 77.4----
2024-06-12 02:56 am--- 3.9 84.8ENE--- 77.4----
2024-06-12 02:26 am--- 4.3 105.1NNW--- 77.4----
2024-06-12 01:56 am--- 4.3 85.2 N--- 77.4----
2024-06-12 01:26 am--- 4.3 105.0NNW--- 77.4----
2024-06-12 12:56 am--- 4.3 105.2 NW--- 77.4----
2024-06-12 12:26 am--- 4.3 85.0 E--- 77.4----
2024-06-11 11:56 pm--- 4.3 75.0 E--- 77.4----
2024-06-11 11:26 pm--- 4.3 75.0 E--- 77.4----
2024-06-11 10:56 pm--- 4.6 75.1 E--- 77.4----
2024-06-11 10:26 pm--- 4.3 85.1 E--- 77.4----
2024-06-11 09:56 pm--- 4.3 74.9 E--- 77.4----
2024-06-11 09:26 pm--- 4.3 74.9 E--- 77.4----
2024-06-11 08:56 pm--- 4.6 75.0 E--- 77.4----
2024-06-11 08:26 pm--- 4.3 85.0 E--- 77.4----
2024-06-11 07:56 pm--- 4.6 75.1 E--- 77.4----
2024-06-11 07:26 pm--- 4.3 114.8NNW--- 77.4----
2024-06-11 06:56 pm--- 4.3 84.9 E--- 77.4----
2024-06-11 06:26 pm--- 4.6 95.0NNW--- 77.4----
2024-06-11 05:56 pm--- 4.3 74.9 E--- 77.4----
2024-06-11 05:26 pm--- 4.6 75.2 E--- 77.4----
2024-06-11 04:56 pm--- 4.3 75.1 E--- 77.5----
2024-06-11 04:26 pm--- 4.3 85.0 E--- 77.5----
2024-06-11 03:56 pm--- 3.9 85.0 E--- 77.5----
2024-06-11 03:26 pm--- 4.3 84.9 E--- 77.5----
2024-06-11 02:56 pm--- 4.6 85.0 E--- 77.5----
2024-06-11 02:26 pm--- 4.6 75.2 E--- 77.5----
2024-06-11 01:56 pm--- 4.3 85.0ENE--- 77.5----
2024-06-11 01:26 pm--- 4.3 85.2 E--- 77.5----
2024-06-11 12:56 pm--- 4.6 85.1 E--- 77.5----
2024-06-11 12:26 pm--- 4.3 85.0 E--- 77.4----
2024-06-11 11:56 am--- 4.6 85.3 E--- 77.4----
2024-06-11 11:26 am--- 4.6 85.2ENE--- 77.4----
2024-06-11 10:56 am--- 4.6 85.2 E--- 77.2----
2024-06-11 10:26 am--- 4.9 85.3 E--- 77.2----
2024-06-11 09:56 am--- 4.3 75.2 E--- 77.2----
2024-06-11 09:26 am--- 4.6 85.3 E--- 77.2----
2024-06-11 08:56 am--- 4.3 85.2 E--- 77.2----
2024-06-11 08:26 am--- 4.6 85.4 E--- 77.0----
2024-06-11 07:56 am--- 4.3 85.2 E--- 77.0----
2024-06-11 07:26 am--- 4.3 85.3 E--- 77.0----
2024-06-11 06:56 am--- 4.3 85.5 E--- 77.0----

Detailed Wave Summary
for 51205 as of (7:26 am HAST)
1726 GMT on 06/12/2024:

These wave data are displayed in rounded times.

     

Click on the graph icon in the table below to see a time series plot of the last five days of that observation.

5-day plot - Significant Wave Height Significant Wave Height (WVHT): 3.9 ft
5-day plot - Swell Height Swell Height (SwH): 1.3 ft
5-day plot - Swell Period Swell Period (SwP): 10.5 sec
5-day plot - Swell Direction Swell Direction (SwD):NNW
5-day plot - Wind Wave Height Wind Wave Height (WWH): 3.9 ft
5-day plot - Wind Wave Period Wind Wave Period (WWP): 7.7 sec
5-day plot - Wind Wave Direction Wind Wave Direction (WWD):ENE
5-day plot - Wave Steepness Wave Steepness (STEEPNESS): AVERAGE
5-day plot - Average Wave Period Average Wave Period (APD): 5.2 sec
Previous observations
TIME
(HAST)
5-day plot - Wave Height
WVHT
ft
5-day plot - Swell Height
SwH
ft
5-day plot - Swell Period
SwP
sec
5-day plot - Swell Direction
SwD
 
5-day plot - Wind Wave Height
WWH
ft
5-day plot - Wind Wave Period
WWP
sec
5-day plot - Wind Wave Direction
WWD
 
5-day plot - Wave Steepness
STEEPNESS
 
5-day plot - Average Wave Period
APD
sec
2024-06-12 06:56 am 4.3 1.3 10.5NNW 3.9 7.7 NE AVERAGE 5.1
2024-06-12 06:26 am 3.9 1.3 10.5 N 3.6 7.7 NE AVERAGE 5.3
2024-06-12 05:56 am 3.9 1.3 10.5 NW 3.6 7.1 ENE AVERAGE 5.2
2024-06-12 05:26 am 3.9 1.3 10.5NNW 3.9 7.1 ENE AVERAGE 5.3
2024-06-12 04:56 am 3.9 1.3 10.5 NW 3.9 6.7 ENE STEEP 5.1
2024-06-12 04:26 am 3.9 1.3 11.1NNW 3.9 7.7 ENE AVERAGE 5.1
2024-06-12 03:56 am 4.3 1.3 10.5 NW 3.9 7.1 ENE STEEP 5.3
2024-06-12 03:26 am 3.9 1.3 11.1 N 3.6 9.1 NNW AVERAGE 5.3
2024-06-12 02:56 am 3.9 1.0 12.5 N 3.6 7.7 ENE AVERAGE 4.8
2024-06-12 02:26 am 4.3 1.3 10.5NNW 3.9 9.9 NNW AVERAGE 5.1
2024-06-12 01:56 am 4.3 1.3 11.1NNW 3.9 8.3 N AVERAGE 5.2
2024-06-12 01:26 am 4.3 1.3 11.1NNW 3.9 9.9 NNW AVERAGE 5.0
2024-06-12 12:56 am 4.3 1.3 11.1NNW 3.9 9.9 NW AVERAGE 5.2
2024-06-12 12:26 am 4.3 1.0 11.1NNW 3.9 7.7 E AVERAGE 5.0
2024-06-11 11:56 pm 4.3 1.3 10.5 N 3.9 7.1 E AVERAGE 5.0
2024-06-11 11:26 pm 4.3 1.3 11.8 N 4.3 7.1 E STEEP 5.0
2024-06-11 10:56 pm 4.6 1.3 10.5NNW 4.3 7.1 E STEEP 5.1
2024-06-11 10:26 pm 4.3 1.0 11.1NNW 4.3 7.7 E AVERAGE 5.1
2024-06-11 09:56 pm 4.3 1.0 11.1NNW 4.3 7.1 E STEEP 4.9
2024-06-11 09:26 pm 4.3 1.0 11.1NNW 3.9 7.1 E AVERAGE 4.9
2024-06-11 08:56 pm 4.6 1.0 10.5NNW 4.3 7.1 E STEEP 5.0
2024-06-11 08:26 pm 4.3 1.0 10.5NNW 3.9 7.7 E AVERAGE 5.0
2024-06-11 07:56 pm 4.6 1.3 11.1NNW 4.3 7.1 E STEEP 5.1
2024-06-11 07:26 pm 4.3 1.3 10.5NNW 3.9 7.1 E AVERAGE 4.8
2024-06-11 06:56 pm 4.3 1.0 10.5 NW 3.9 7.7 E AVERAGE 4.9
2024-06-11 06:26 pm 4.6 1.0 10.5NNW 4.3 9.1 NNW AVERAGE 5.0
2024-06-11 05:56 pm 4.3 1.0 10.5NNW 4.3 7.1 E STEEP 4.9
2024-06-11 05:26 pm 4.6 1.3 10.5NNW 4.3 7.1 E STEEP 5.2
2024-06-11 04:56 pm 4.3 1.0 10.5 N 4.3 7.1 E STEEP 5.1
2024-06-11 04:26 pm 4.3 1.0 10.5 NW 4.3 7.7 E AVERAGE 5.0
2024-06-11 03:56 pm 3.9 1.0 10.5 NW 3.9 7.7 E AVERAGE 5.0
2024-06-11 03:26 pm 4.3 1.0 10.5 NW 4.3 7.7 E AVERAGE 4.9
2024-06-11 02:56 pm 4.6 1.3 11.1 NW 4.3 7.7 E AVERAGE 5.0
2024-06-11 02:26 pm 4.6 1.3 10.5 N 4.3 7.1 E STEEP 5.2
2024-06-11 01:56 pm 4.3 1.0 10.5NNW 3.9 7.7 ENE AVERAGE 5.0
2024-06-11 01:26 pm 4.3 1.0 11.1NNW 3.9 7.7 E AVERAGE 5.2
2024-06-11 12:56 pm 4.6 1.0 10.5NNW 4.3 7.7 E AVERAGE 5.1
2024-06-11 12:26 pm 4.3 1.3 10.5NNW 4.3 7.7 E AVERAGE 5.0
2024-06-11 11:56 am 4.6 1.3 10.5NNW 4.3 7.7 E AVERAGE 5.3
2024-06-11 11:26 am 4.6 1.3 10.5NNW 4.3 7.7 ENE AVERAGE 5.2
2024-06-11 10:56 am 4.6 1.3 10.5NNW 4.3 7.7 E AVERAGE 5.2
2024-06-11 10:26 am 4.6 1.3 10.5NNW 4.6 7.7 E AVERAGE 5.3
2024-06-11 09:56 am 4.3 1.0 11.1NNW 4.3 7.1 E STEEP 5.2
2024-06-11 09:26 am 4.6 1.3 10.5NNW 4.3 7.7 E AVERAGE 5.3
2024-06-11 08:56 am 4.3 1.0 10.5NNW 3.9 7.7 E AVERAGE 5.2
2024-06-11 08:26 am 4.6 1.3 11.1NNW 4.3 7.7 E AVERAGE 5.4
2024-06-11 07:56 am 4.3 1.3 10.5 NW 4.3 7.7 E AVERAGE 5.2
2024-06-11 07:26 am 4.3 1.3 10.5NNW 3.9 7.7 E AVERAGE 5.3
2024-06-11 06:56 am 4.3 1.3 10.5NNW 3.9 7.7 E AVERAGE 5.5

Plot of wave energy versus frequency (and period)